Flag for France Weather past 2 weeks in Mulhouse, France

Now
55 °F

Light rain. Partly sunny.


Feels Like: 49 °F
Forecast: 41 / 46 °F
Wind: 30 mph from West

Location: Bale-Mulhouse

Current Time: Mar 31, 2015 at 12:26:33 PM

Latest Report: Mar 31, 2015 at 12:00 PM


Visibility: N/A

Pressure: 29.86 "Hg

Humidity: 77%

Dew point: 48 °F

Location of MulhouseLocation

Historic Weather in Mulhouse — Graph

°F

Mulhouse temperature yesterday

Maximum temperature yesterday: 54 °F (at 8:00 AM)
Minimum temperature yesterday: 50 °F (at 9:00 AM)
Average temperature yesterday: 52 °F

Past Weeks' High & Low Weather Summary

 TemperatureHumidityPressure
High64 °F (Mar 17, 3:30 PM)100% (Mar 17, 3:30 AM)30.27 "Hg (Mar 17, 3:30 AM)
Low30 °F (Mar 17, 4:00 AM)37% (Mar 17, 3:30 PM)29.62 "Hg (Mar 25, 6:00 AM)
Average47 °F72%30.00 "Hg
* Reported Mar 16 10:00 AM — Mar 31 11:30 AM, Mulhouse, Weather by CustomWeather, © 2015

Note: Actual official high and low records may vary slightly from our data, if they occured in-between our weather recording intervals... More about our weather records

Advertising

Mulhouse weather history for previous 24 hours

 ConditionsComfort  
Time TempWeatherWind HumidityBarometerVisibility
11:30 AM
Tue, Mar 31
55 °FLight rain. Partly sunny.21 mph72%29.86 "HgN/A
11:00 AM57 °FLight rain. Partly sunny.25 mph63%29.86 "HgN/A
10:30 AM57 °FLight rain. Partly sunny.26 mph63%29.86 "HgN/A
10:00 AM57 °FPartly sunny.21 mph63%29.83 "HgN/A
9:30 AM57 °FPartly sunny.18 mph63%29.83 "HgN/A
9:00 AM57 °FPartly sunny.20 mph63%29.83 "HgN/A
8:30 AM57 °FPartly sunny.22 mph63%29.86 "HgN/A
8:00 AM55 °FPassing clouds.25 mph67%29.86 "HgN/A
7:30 AM57 °FPassing clouds.25 mph67%29.86 "HgN/A
7:00 AM57 °FLight rain. Passing clouds.24 mph67%29.83 "HgN/A
6:30 AM57 °FPassing clouds.22 mph72%29.83 "HgN/A
6:00 AM57 °FLight rain. Passing clouds.24 mph72%29.80 "HgN/A
5:30 AM57 °FPassing clouds.25 mph72%29.80 "HgN/A
5:00 AM57 °FPassing clouds.18 mph72%29.83 "HgN/A
4:30 AM55 °FMostly cloudy.16 mph77%29.83 "HgN/A
4:00 AM54 °FLight rain. Mostly cloudy.14 mph82%29.83 "HgN/A
3:30 AM54 °FPartly cloudy.14 mph77%29.86 "HgN/A
3:00 AM52 °FMostly cloudy.3 mph77%29.89 "HgN/A
2:30 AM52 °FOvercast.6 mph77%29.92 "HgN/A
2:00 AM52 °FMostly cloudy.9 mph77%29.95 "HgN/A
1:30 AM52 °FPassing clouds.7 mph77%29.95 "HgN/A
1:00 AM52 °FPartly cloudy.14 mph72%29.98 "HgN/A
12:30 AM50 °FMostly cloudy.8 mph76%29.98 "HgN/A
12:00 AM50 °FPartly cloudy.6 mph71%29.98 "HgN/A
11:30 PM
Mon, Mar 30
50 °FPartly cloudy.6 mph71%30.01 "HgN/A
11:00 PM50 °FPassing clouds.10 mph67%30.01 "HgN/A
10:30 PM50 °FPassing clouds.12 mph67%30.01 "HgN/A
10:00 PM50 °FPassing clouds.10 mph67%30.01 "HgN/A
9:30 PM50 °FPassing clouds.10 mph67%30.01 "HgN/A
9:00 PM50 °FPassing clouds.12 mph67%30.01 "HgN/A
8:30 PM50 °FPartly sunny.10 mph62%30.01 "HgN/A
8:00 PM50 °FPartly sunny.7 mph62%29.98 "HgN/A
7:30 PM52 °FPartly sunny.7 mph58%29.98 "HgN/A
7:00 PM52 °FPartly sunny.10 mph58%29.98 "HgN/A
6:30 PM52 °FPartly sunny.10 mph58%29.98 "HgN/A
6:00 PM52 °FPartly sunny.13 mph54%29.95 "HgN/A
5:30 PM52 °FPartly sunny.12 mph58%29.95 "HgN/A
5:00 PM54 °FBroken clouds.18 mph58%29.92 "HgN/A
4:30 PM54 °FPartly sunny.14 mph58%29.92 "HgN/A
4:00 PM54 °FPartly sunny.16 mph63%29.92 "HgN/A
3:30 PM54 °FScattered clouds.18 mph63%29.89 "HgN/A
3:00 PM54 °FPartly sunny.16 mph63%29.89 "HgN/A
2:30 PM54 °FBroken clouds.15 mph58%29.89 "HgN/A
2:00 PM54 °FPartly sunny.16 mph67%29.86 "HgN/A
1:30 PM54 °FPartly sunny.16 mph72%29.83 "HgN/A
1:00 PM52 °FBroken clouds.18 mph72%29.83 "HgN/A
12:30 PM52 °FPartly sunny.20 mph72%29.83 "HgN/A
12:00 PM52 °FPartly sunny.15 mph77%29.83 "HgN/A
Weather by CustomWeather, © 2015

See weather overviewHow to use our weather pages